Location: *
(43.7000°S, 168.7000°W)
Time: 03:59:34
(UTC+00:00)

Cosmos 2227 Rocket - Pass Details

Date: 07 July 2020
Orbit: 839 x 845 km, 71.0° (Epoch: 10 August)

Event Time Altitude Azimuth Distance (km) Brightness Sun altitude
Exits shadow 15:32:17 22° 156° (SSE) 1,806 4.1 -34.5°
Maximum altitude 15:33:59 25° 129° (SE) 1,669 4.1 -34.2°
Drops below altitude 10° 15:38:35 10° 75° (ENE) 2,474 5.4 -33.4°
Sets 15:41:29 0° 62° (ENE) 3,403 6.2 -32.8°
